Estherville, IA

7:13 PM CST on February 05, 2016 (GMT -0600)
Estherville Municipal

Weather History for KEST - March, 2012

Change the Weather History Date:

Thursday, March 1, 2012

  Actual Average Record
Temperature  
Mean Temperature 31 °F 26 °F  
Max Temperature 33 °F 34 °F 56 °F (1985)
Min Temperature 28 °F 17 °F -20 °F (1962)
Degree Days  
Heating Degree Days 34 39  
Month to date heating degree days 34 39  
Since 1 July heating degree days 5127 5954  
Cooling Degree Days 0 0  
Month to date cooling degree days 0 0  
Year to date cooling degree days 0 0  
Moisture  
Dew Point 29 °F    
Average Humidity 89    
Maximum Humidity 92    
Minimum Humidity 85    
Precipitation  
Precipitation T in 0.02 in 0.65 in (1951)
Month to date precipitation T 0.02  
Year to date precipitation 1.92  
Sea Level Pressure  
Sea Level Pressure 29.78 in    
Wind  
Wind Speed 6 mph (SW)    
Max Wind Speed 16 mph    
Max Gust Speed 22 mph    
Visibility 8 miles    
Events Snow    
T = Trace of Precipitation, MM = Missing Value Source: NWS Daily Summary

Daily Weather History Graph

Daily Weather History Graph

Search for Another Location

Airport or City:

Trip Planner

Search our weather history database for the weather conditions in past years. The results will help you decide how hot, cold, wet, or windy it might be!

Date:

Astronomy

Mar. 01, 2012 Rise Set
Actual Time 6:54 AM CST 6:08 PM CST
Civil Twilight 6:25 AM CST 6:37 PM CST
Nautical Twilight 5:52 AM CST 7:10 PM CST
Astronomical Twilight 5:19 AM CST 7:43 PM CST
Moon 11:21 AM CST (3/1) 2:02 AM CST (3/1)
Length of Visible Light 12h 11m
Length of Day
11h 14m
First Quarter, 57% of the Moon is Illuminated
Mar 1
First Quarter
Mar 8
Full
Mar 14
Last Quarter
Mar 22
New
Mar 30
First Quarter

Hourly Weather History & Observations

Time (CST) Temp. Windchill Dew Point Humidity Pressure Visibility Wind Dir Wind Speed Gust Speed Precip Events Conditions
12:52 AM 30.0 °F 20.0 °F 28.0 °F 92% 29.81 in 10.0 mi WNW 12.7 mph - N/A   Overcast
1:52 AM 30.9 °F 20.7 °F 28.0 °F 89% 29.83 in 10.0 mi WNW 13.8 mph - N/A   Overcast
2:52 AM 30.0 °F 20.0 °F 28.0 °F 92% 29.81 in 9.0 mi NW 12.7 mph - N/A   Overcast
3:52 AM 30.0 °F 24.1 °F 28.0 °F 92% 29.81 in 8.0 mi NNW 5.8 mph - N/A   Overcast
4:15 AM 30.2 °F 25.4 °F 28.4 °F 93% 29.76 in 8.0 mi NW 4.6 mph - N/A   Overcast
4:52 AM 30.0 °F 26.5 °F 28.0 °F 92% 29.81 in 8.0 mi NW 3.5 mph - N/A   Overcast
5:03 AM 30.2 °F 26.7 °F 28.4 °F 93% 29.76 in 8.0 mi WNW 3.5 mph - N/A   Overcast
5:52 AM 30.0 °F 25.2 °F 28.0 °F 92% 29.81 in 8.0 mi WSW 4.6 mph - N/A   Overcast
6:52 AM 28.9 °F 21.9 °F 27.0 °F 92% 29.81 in 8.0 mi WSW 6.9 mph - N/A   Overcast
7:52 AM 28.9 °F 22.8 °F 27.0 °F 92% 29.82 in 6.0 mi WSW 5.8 mph - N/A   Overcast
8:13 AM 28.4 °F 20.4 °F 26.6 °F 93% 29.79 in 5.0 mi WSW 8.1 mph - N/A   Overcast
8:52 AM 28.9 °F 25.2 °F 27.0 °F 92% 29.83 in 6.0 mi WNW 3.5 mph - N/A   Mostly Cloudy
9:09 AM 28.4 °F 24.6 °F 28.4 °F 100% 29.78 in 6.0 mi NNW 3.5 mph - N/A   Scattered Clouds
9:50 AM 30.2 °F - 28.4 °F 93% 29.80 in 6.0 mi Calm Calm - N/A   Mostly Cloudy
9:52 AM 30.0 °F - 28.0 °F 92% 29.84 in 6.0 mi Calm Calm - N/A   Mostly Cloudy
10:40 AM 30.2 °F 21.9 °F 28.4 °F 93% 29.79 in 8.0 mi South 9.2 mph - N/A   Mostly Cloudy
10:52 AM 32.0 °F 24.2 °F 28.9 °F 88% 29.83 in 8.0 mi South 9.2 mph - N/A   Overcast
11:52 AM 30.9 °F 26.2 °F 28.9 °F 92% 29.81 in 7.0 mi SSE 4.6 mph - N/A   Mostly Cloudy
12:48 PM 30.2 °F 22.6 °F 28.4 °F 93% 29.75 in 9.0 mi South 8.1 mph - N/A   Scattered Clouds
12:52 PM 30.9 °F 24.3 °F 28.9 °F 92% 29.79 in 9.0 mi South 6.9 mph - N/A   Scattered Clouds
2:52 PM 32.0 °F 26.4 °F 28.9 °F 88% 29.75 in 10.0 mi South 5.8 mph - N/A   Overcast
3:00 PM 32.0 °F 26.4 °F 28.4 °F 87% 29.72 in 10.0 mi South 5.8 mph - N/A   Overcast
3:52 PM 32.0 °F - 30.0 °F 92% 29.77 in 3.0 mi Calm Calm - 0.00 in Snow Light Snow
4:03 PM 32.0 °F 28.7 °F 30.2 °F 93% 29.73 in 2.5 mi SSW 3.5 mph - 0.00 in Snow Light Snow
4:16 PM 32.0 °F 27.5 °F 30.2 °F 93% 29.72 in 3.0 mi South 4.6 mph - 0.00 in Snow Light Snow
4:40 PM 32.0 °F 25.6 °F 28.4 °F 87% 29.71 in 9.0 mi SE 6.9 mph - 0.00 in   Mostly Cloudy
4:52 PM 32.0 °F 24.2 °F 30.0 °F 92% 29.74 in 8.0 mi ESE 9.2 mph - 0.00 in   Overcast
5:52 PM 32.0 °F 28.7 °F 28.9 °F 88% 29.76 in 10.0 mi SSW 3.5 mph - N/A   Overcast
6:52 PM 33.1 °F - 30.0 °F 89% 29.77 in 9.0 mi Calm Calm - N/A   Overcast
7:52 PM 32.0 °F 23.6 °F 30.0 °F 92% 29.76 in 9.0 mi SE 10.4 mph - N/A   Overcast
8:22 PM 33.8 °F 26.4 °F 30.2 °F 87% 29.77 in 9.0 mi West 9.2 mph - N/A   Overcast
8:41 PM 33.8 °F 25.8 °F 30.2 °F 87% 29.77 in 10.0 mi WSW 10.4 mph - N/A   Overcast
8:52 PM 33.1 °F 25.5 °F 30.0 °F 89% 29.81 in 10.0 mi SW 9.2 mph - N/A   Overcast
9:04 PM 33.8 °F 27.0 °F 30.2 °F 87% 29.77 in 10.0 mi SW 8.1 mph - N/A   Overcast
9:52 PM 33.1 °F 27.7 °F 30.9 °F 92% 29.81 in 9.0 mi SW 5.8 mph - N/A   Overcast
10:32 PM 32.0 °F 26.4 °F 30.2 °F 93% 29.75 in 8.0 mi SW 5.8 mph - N/A   Overcast
10:52 PM 32.0 °F 28.7 °F 30.9 °F 96% 29.79 in 8.0 mi WSW 3.5 mph - N/A   Overcast
11:01 PM 32.0 °F 27.5 °F 30.2 °F 93% 29.75 in 8.0 mi WSW 4.6 mph - N/A   Overcast
11:21 PM 32.0 °F - 28.4 °F 87% 29.73 in 8.0 mi Calm Calm - N/A   Mostly Cloudy
11:52 PM 32.0 °F 28.7 °F 30.0 °F 92% 29.77 in 8.0 mi West 3.5 mph - N/A   Overcast